• In Moldova, Republic
  • List of Countries
  • For 7 days
  • Water Temperature
  • Satellite Maps
  • Weather Map
  • Weather Widgets
  • user-avatar
    Login

    Hourly Weather Mingachevir

    Today, 30 May, Tuesday

    Time Temperature Precipitation Wind Pressure Humidity
    00:00 +19°C° 0.1 mm 2 mps 756 mmHg 69%
    01:00 +18°C° 0 mm 2 mps 756 mmHg 70%
    02:00 +19°C° 0 mm 1 mps 756 mmHg 72%
    03:00 +18°C° 0 mm 1 mps 755 mmHg 74%
    04:00 +19°C° 0 mm 1 mps 755 mmHg 71%
    05:00 +20°C° 0 mm 1 mps 755 mmHg 69%
    06:00 +21°C° 0 mm 1 mps 754 mmHg 66%
    07:00 +22°C° 0 mm 1 mps 754 mmHg 61%
    08:00 +24°C° 0 mm 1 mps 753 mmHg 55%
    09:00 +26°C° 0 mm 1 mps 753 mmHg 49%
    10:00 +27°C° 0 mm 1 mps 753 mmHg 46%
    11:00 +28°C° 0 mm 1 mps 752 mmHg 43%
    12:00 +30°C° 0 mm 1 mps 751 mmHg 39%
    13:00 +30°C° 0 mm 1 mps 751 mmHg 38%
    14:00 +31°C° 0 mm 1 mps 751 mmHg 37%
    15:00 +32°C° 0 mm 1 mps 750 mmHg 36%
    16:00 +31°C° 0 mm 1 mps 750 mmHg 38%
    17:00 +31°C° 0 mm 1 mps 750 mmHg 40%
    18:00 +30°C° 0 mm 1 mps 750 mmHg 43%
    19:00 +28°C° 0 mm 1 mps 750 mmHg 48%
    20:00 +26°C° 0 mm 1 mps 750 mmHg 53%
    21:00 +24°C° 0 mm 1 mps 751 mmHg 59%
    22:00 +23°C° 0 mm 1 mps 751 mmHg 58%
    23:00 +23°C° 0 mm 1 mps 751 mmHg 58%

    Tomorrow, 31 May, Wednesday

    Time Temperature Precipitation Wind Pressure Humidity
    00:00 +23°C° 0 mm 2 mps 751 mmHg 57%
    01:00 +22°C° 0 mm 1 mps 751 mmHg 57%
    02:00 +22°C° 0 mm 1 mps 750 mmHg 57%
    03:00 +21°C° 0 mm 1 mps 750 mmHg 57%
    04:00 +21°C° 0 mm 2 mps 750 mmHg 54%
    05:00 +23°C° 0 mm 2 mps 750 mmHg 51%
    06:00 +25°C° 0 mm 2 mps 750 mmHg 48%
    07:00 +27°C° 0 mm 2 mps 750 mmHg 41%
    08:00 +29°C° 0 mm 3 mps 750 mmHg 34%
    09:00 +31°C° 0 mm 3 mps 749 mmHg 27%
    10:00 +33°C° 0 mm 3 mps 749 mmHg 26%
    11:00 +34°C° 0 mm 2 mps 748 mmHg 25%
    12:00 +35°C° 0 mm 2 mps 748 mmHg 23%
    13:00 +35°C° 0 mm 2 mps 747 mmHg 23%
    14:00 +35°C° 0 mm 2 mps 747 mmHg 23%
    15:00 +36°C° 0 mm 2 mps 747 mmHg 23%
    16:00 +34°C° 0.2 mm 2 mps 747 mmHg 27%
    17:00 +32°C° 0.2 mm 2 mps 747 mmHg 31%
    18:00 +31°C° 0.2 mm 2 mps 747 mmHg 35%
    19:00 +29°C° 0.3 mm 2 mps 747 mmHg 39%
    20:00 +26°C° 0.3 mm 2 mps 748 mmHg 43%
    21:00 +24°C° 0.3 mm 2 mps 748 mmHg 47%
    22:00 +23°C° 0.4 mm 2 mps 748 mmHg 51%
    23:00 +21°C° 0.4 mm 2 mps 748 mmHg 55%

    Day after tomorrow, 1 June, Thursday

    Time Temperature Precipitation Wind Pressure Humidity
    00:00 +21°C° 0.4 mm 2 mps 749 mmHg 60%
    01:00 +20°C° 0.5 mm 2 mps 749 mmHg 63%
    02:00 +20°C° 0.5 mm 2 mps 749 mmHg 66%
    03:00 +19°C° 0.5 mm 3 mps 749 mmHg 69%
    04:00 +20°C° 0.5 mm 3 mps 749 mmHg 67%
    05:00 +21°C° 0.5 mm 3 mps 749 mmHg 66%
    06:00 +21°C° 0.5 mm 4 mps 749 mmHg 64%
    07:00 +23°C° 0.1 mm 4 mps 749 mmHg 57%
    08:00 +26°C° 0.1 mm 4 mps 749 mmHg 50%
    09:00 +28°C° 0.1 mm 5 mps 749 mmHg 43%
    10:00 +29°C° 0.1 mm 4 mps 748 mmHg 39%
    11:00 +30°C° 0.1 mm 4 mps 748 mmHg 35%
    12:00 +32°C° 0.1 mm 4 mps 748 mmHg 32%
    13:00 +32°C° 0.2 mm 4 mps 748 mmHg 31%
    14:00 +33°C° 0.2 mm 3 mps 747 mmHg 31%
    15:00 +33°C° 0.2 mm 3 mps 747 mmHg 30%
    16:00 +31°C° 0.1 mm 2 mps 747 mmHg 33%
    17:00 +30°C° 0.1 mm 2 mps 747 mmHg 36%
    18:00 +30°C° 0.1 mm 2 mps 748 mmHg 39%
    19:00 +28°C° 0.1 mm 2 mps 748 mmHg 41%
    20:00 +26°C° 0.1 mm 2 mps 749 mmHg 44%
    21:00 +24°C° 0.1 mm 3 mps 749 mmHg 46%
    22:00 +23°C° 0 mm 2 mps 749 mmHg 50%
    23:00 +21°C° 0 mm 2 mps 750 mmHg 54%

    2 June, Friday

    Time Temperature Precipitation Wind Pressure Humidity
    00:00 +20°C° 0 mm 2 mps 750 mmHg 57%
    01:00 +20°C° 0 mm 2 mps 750 mmHg 60%
    02:00 +19°C° 0 mm 2 mps 750 mmHg 62%
    03:00 +19°C° 0 mm 2 mps 750 mmHg 65%
    04:00 +20°C° 0 mm 2 mps 750 mmHg 63%
    05:00 +20°C° 0 mm 2 mps 750 mmHg 61%
    06:00 +21°C° 0 mm 3 mps 750 mmHg 58%
    07:00 +24°C° 0 mm 3 mps 750 mmHg 53%
    08:00 +26°C° 0 mm 3 mps 750 mmHg 47%
    09:00 +27°C° 0 mm 3 mps 750 mmHg 42%
    10:00 +28°C° 0 mm 3 mps 750 mmHg 39%
    11:00 +29°C° 0 mm 3 mps 750 mmHg 37%
    12:00 +30°C° 0 mm 2 mps 749 mmHg 34%
    13:00 +31°C° 0.1 mm 2 mps 749 mmHg 33%
    14:00 +31°C° 0.1 mm 1 mps 749 mmHg 32%
    15:00 +32°C° 0.1 mm 1 mps 749 mmHg 31%
    16:00 +31°C° 0 mm 1 mps 749 mmHg 34%
    17:00 +31°C° 0 mm 1 mps 749 mmHg 37%
    18:00 +31°C° 0 mm 1 mps 749 mmHg 39%
    19:00 +28°C° 0.1 mm 2 mps 750 mmHg 43%
    20:00 +26°C° 0.1 mm 3 mps 751 mmHg 47%
    21:00 +24°C° 0.1 mm 3 mps 751 mmHg 51%
    22:00 +24°C° 0.1 mm 3 mps 752 mmHg 55%
    23:00 +23°C° 0.1 mm 2 mps 752 mmHg 59%

    3 June, Saturday

    Time Temperature Precipitation Wind Pressure Humidity
    00:00 +22°C° 0.1 mm 1 mps 752 mmHg 63%
    01:00 +22°C° 0 mm 1 mps 752 mmHg 64%
    02:00 +21°C° 0 mm 1 mps 753 mmHg 65%
    03:00 +21°C° 0 mm 1 mps 753 mmHg 66%
    04:00 +22°C° 0 mm 1 mps 753 mmHg 64%
    05:00 +22°C° 0 mm 1 mps 753 mmHg 62%
    06:00 +23°C° 0 mm 1 mps 754 mmHg 60%
    07:00 +24°C° 0.1 mm 1 mps 754 mmHg 57%
    08:00 +25°C° 0.1 mm 2 mps 754 mmHg 54%
    09:00 +25°C° 0.1 mm 2 mps 754 mmHg 52%
    10:00 +26°C° 0 mm 2 mps 753 mmHg 49%
    11:00 +27°C° 0 mm 2 mps 753 mmHg 47%
    12:00 +29°C° 0 mm 2 mps 753 mmHg 44%
    13:00 +29°C° 0 mm 2 mps 752 mmHg 43%
    14:00 +30°C° 0 mm 3 mps 752 mmHg 42%
    15:00 +30°C° 0 mm 3 mps 752 mmHg 41%
    16:00 +30°C° 0 mm 3 mps 752 mmHg 43%
    17:00 +29°C° 0 mm 3 mps 752 mmHg 45%
    18:00 +28°C° 0 mm 3 mps 752 mmHg 48%
    19:00 +27°C° 0 mm 3 mps 752 mmHg 52%
    20:00 +25°C° 0 mm 3 mps 753 mmHg 56%
    21:00 +24°C° 0 mm 3 mps 753 mmHg 61%
    22:00 +22°C° 0 mm 3 mps 753 mmHg 63%
    23:00 +21°C° 0 mm 2 mps 753 mmHg 66%

    4 June, Sunday

    Time Temperature Precipitation Wind Pressure Humidity
    00:00 +20°C° 0 mm 2 mps 753 mmHg 69%
    01:00 +21°C° 0 mm 1 mps 753 mmHg 72%
    02:00 +20°C° 0 mm 1 mps 753 mmHg 74%
    03:00 +19°C° 0 mm 1 mps 753 mmHg 77%
    04:00 +18°C° 0.1 mm 0 mps 754 mmHg 73%
    05:00 +20°C° 0.1 mm 0 mps 754 mmHg 69%
    06:00 +21°C° 0.1 mm 0 mps 755 mmHg 66%
    07:00 +24°C° 0 mm 1 mps 755 mmHg 61%
    08:00 +25°C° 0 mm 1 mps 755 mmHg 57%
    09:00 +26°C° 0 mm 2 mps 755 mmHg 53%
    10:00 +27°C° 0 mm 2 mps 755 mmHg 49%
    11:00 +29°C° 0 mm 3 mps 754 mmHg 45%
    12:00 +30°C° 0 mm 3 mps 754 mmHg 41%
    13:00 +30°C° 0 mm 3 mps 754 mmHg 39%
    14:00 +32°C° 0 mm 4 mps 754 mmHg 37%
    15:00 +33°C° 0 mm 4 mps 753 mmHg 35%
    16:00 +32°C° 0 mm 4 mps 753 mmHg 37%
    17:00 +30°C° 0 mm 4 mps 754 mmHg 39%
    18:00 +29°C° 0 mm 4 mps 754 mmHg 40%
    19:00 +27°C° 0 mm 4 mps 754 mmHg 44%
    20:00 +25°C° 0 mm 4 mps 755 mmHg 49%
    21:00 +22°C° 0 mm 4 mps 755 mmHg 53%
    22:00 +21°C° 0 mm 3 mps 755 mmHg 57%
    23:00 +20°C° 0 mm 3 mps 755 mmHg 60%
    Show more